Overview Statistics Trail Chart Weather Telemetry Raw packets
 

This is the latest recevied weather packets stored in our database for station/object KQ7A. If no packets are shown the sender has not sent any weather packets the latest 10 day(s).

<< 86 87 88 89 90 91 92 >>
Time Temp. Humidity Pressure Rain* Wind** Luminosity Snow
1788049863 26.11° C 22% 1017.9 hPa 0 mm - 48 W/m² -
1788049556 26.11° C 22% 1017.8 hPa 0 mm - 55 W/m² -
1788049251 26.11° C 22% 1017.9 hPa 0 mm - 317 W/m² -
1788048946 25.56° C 23% 1018.2 hPa 0 mm - 308 W/m² -
1788048642 25.56° C 22% 1017.8 hPa 0 mm - 334 W/m² -
1788048338 26.11° C 23% 1017.8 hPa 0 mm - 366 W/m² -
1788048034 26.11° C 22% 1017.8 hPa 0 mm - 384 W/m² -
1788047731 26.11° C 23% 1017.6 hPa 0 mm - 389 W/m² -
1788047427 26.11° C 23% 1017.9 hPa 0 mm - 415 W/m² -
1788047120 26.11° C 22% 1017.9 hPa 0 mm - 413 W/m² -
1788046815 26.11° C 24% 1017.7 hPa 0 mm - 421 W/m² -
1788046514 26.67° C 23% 1018.1 hPa 0 mm - 442 W/m² -
1788046210 26.11° C 23% 1017.8 hPa 0 mm - 454 W/m² -
1788045907 26.11° C 25% 1017.6 hPa 0 mm - 461 W/m² -
1788045603 26.11° C 23% 1017.8 hPa 0 mm - 459 W/m² -
1788045297 26.67° C 23% 1018.3 hPa 0 mm - 473 W/m² -
1788044993 26.67° C 22% 1017.6 hPa 0 mm - 466 W/m² -
1788044691 26.11° C 25% 1017.9 hPa 0 mm - 498 W/m² -
1788044387 26.11° C 23% 1018.2 hPa 0 mm - 520 W/m² -
1788044082 26.67° C 22% 1018.2 hPa 0 mm - 546 W/m² -
1788043778 26.11° C 23% 1018.3 hPa 0 mm - 542 W/m² -
1788043477 26.11° C 25% 1018.2 hPa 0 mm - 560 W/m² -
1788043172 26.11° C 25% 1018.4 hPa 0 mm - 576 W/m² -
1788042868 26.11° C 23% 1018.1 hPa 0 mm - 567 W/m² -
1788042567 27.22° C 25% 1018.3 hPa 0 mm - 578 W/m² -

* Rain latest hour (hover to see other rain measurements)
** Current wind speed in m/s (hover to see current wind gust speed)